CHINASAT 6C (ZX 6C)

Last updated on Aug. 6, 2020, 5:30 a.m. UTC

1 44067U 19012A   20218.50103182 -.00000353  00000-0  99999+0 0  9993
2 44067   0.0346 195.1500 0001962 226.5020 203.2107  1.00269767  5257
UTC
Height (km)
Latitude
Longitude
Inclination
Orbital Period
UTC large
Height (km)
Speed (km/s)
/
Latitude / Longitude
Inclination (degrees)
Orbital Period (minutes)
Azimuth
Elevation
Range (km)
Doppler Factor
iOS Compass Heading
iOS Angle

Next 30 passes for location: Hong Kong

Rise time Rise Azimuth (degrees) Set time Set Azimuth (degrees) Duration Max altitude (degrees)

No matching passes for this satellites